TimeCST,TemperatureF,Dew PointF,Humidity,Sea Level PressureIn,VisibilityMPH,Wind Direction,Wind SpeedMPH,Gust SpeedMPH,PrecipitationIn,Events,Conditions,WindDirDegrees,DateUTC
12:15 AM,32.0,32.0,100,29.73,0.2,North,26.5,44.9,1.82,Snow,Heavy Snow,350,2012-12-26 06:15:00
12:35 AM,32.0,32.0,100,29.72,0.2,North,27.6,38.0,5.62,Snow,Heavy Snow,360,2012-12-26 06:35:00
12:55 AM,32.0,32.0,100,29.72,0.2,North,33.4,41.4,9.01,Snow,Heavy Snow,360,2012-12-26 06:55:00
1:15 AM,32.0,32.0,100,29.74,0.2,North,26.5,34.5,1.43,Snow,Heavy Snow,360,2012-12-26 07:15:00
1:35 AM,32.0,32.0,100,29.75,0.5,North,23.0,34.5,2.35,Snow,Snow,350,2012-12-26 07:35:00
1:55 AM,32.0,32.0,100,29.75,-9999.0,North,24.2,34.5,3.31,Snow,Heavy Snow,350,2012-12-26 07:55:00
2:15 AM,32.0,30.2,93,29.76,-9999.0,North,25.3,32.2,0.63,Snow,Heavy Snow,350,2012-12-26 08:15:00
2:35 AM,32.0,30.2,93,29.77,0.8,NNW,21.9,32.2,1.41,Snow,Light Snow,340,2012-12-26 08:35:00
2:55 AM,32.0,30.2,93,29.78,1.0,NNW,25.3,32.2,1.72,,Unknown,340,2012-12-26 08:55:00
3:15 AM,32.0,28.4,87,29.78,0.8,NNW,24.2,33.4,0.16,Snow,Light Snow,340,2012-12-26 09:15:00
3:35 AM,32.0,28.4,87,29.79,1.0,NNW,21.9,28.8,0.35,Snow,Light Snow,340,2012-12-26 09:35:00
3:55 AM,32.0,28.4,87,29.78,0.8,NNW,20.7,33.4,0.59,Snow,Light Snow,340,2012-12-26 09:55:00
4:15 AM,32.0,28.4,87,29.79,1.0,NNW,21.9,31.1,0.39,Snow,Light Snow,340,2012-12-26 10:15:00
4:35 AM,32.0,28.4,87,29.79,1.5,NNW,18.4,28.8,0.91,Snow,Light Snow,340,2012-12-26 10:35:00
4:55 AM,32.0,28.4,87,29.80,1.2,NNW,19.6,26.5,1.26,Snow,Light Snow,340,2012-12-26 10:55:00
5:15 AM,30.2,28.4,93,29.81,2.5,NNW,19.6,24.2,0.05,Snow,Light Snow,340,2012-12-26 11:15:00
5:35 AM,30.2,26.6,86,29.82,2.0,NNW,19.6,31.1,0.13,Snow,Light Snow,330,2012-12-26 11:35:00
5:55 AM,30.2,26.6,86,29.84,3.0,NNW,20.7,26.5,0.18,,Overcast,330,2012-12-26 11:55:00
6:15 AM,32.0,26.6,80,29.86,10.0,NW,16.1,24.2,N/A,,Overcast,320,2012-12-26 12:15:00
6:35 AM,32.0,24.8,75,29.87,10.0,NNW,16.1,21.9,N/A,,Overcast,330,2012-12-26 12:35:00
6:55 AM,32.0,24.8,75,29.88,10.0,NW,20.7,26.5,N/A,,Overcast,320,2012-12-26 12:55:00
7:15 AM,32.0,24.8,75,29.90,8.0,NNW,20.7,28.8,N/A,,Overcast,330,2012-12-26 13:15:00
7:35 AM,30.2,24.8,80,29.91,7.0,NNW,18.4,28.8,N/A,,Overcast,330,2012-12-26 13:35:00
7:55 AM,30.2,24.8,80,29.92,7.0,NNW,20.7,28.8,N/A,,Overcast,330,2012-12-26 13:55:00
8:15 AM,30.2,23.0,75,29.93,9.0,NNW,20.7,28.8,N/A,,Overcast,330,2012-12-26 14:15:00
8:35 AM,30.2,23.0,75,29.95,8.0,NNW,20.7,28.8,N/A,,Overcast,330,2012-12-26 14:35:00
8:55 AM,30.2,23.0,75,29.97,8.0,NNW,18.4,25.3,N/A,,Mostly Cloudy,330,2012-12-26 14:55:00
9:15 AM,30.2,23.0,75,29.98,8.0,NNW,18.4,26.5,N/A,,Mostly Cloudy,330,2012-12-26 15:15:00
9:35 AM,30.2,23.0,75,30.00,8.0,NNW,18.4,28.8,N/A,,Mostly Cloudy,330,2012-12-26 15:35:00
9:55 AM,30.2,23.0,75,30.02,10.0,NNW,17.3,25.3,N/A,,Mostly Cloudy,330,2012-12-26 15:55:00
10:15 AM,32.0,23.0,69,30.03,10.0,NNW,17.3,26.5,N/A,,Overcast,330,2012-12-26 16:15:00
10:35 AM,32.0,23.0,69,30.04,10.0,NW,18.4,25.3,N/A,,Overcast,320,2012-12-26 16:35:00
10:55 AM,32.0,23.0,69,30.05,10.0,NW,18.4,27.6,N/A,,Overcast,320,2012-12-26 16:55:00
11:15 AM,32.0,23.0,69,30.04,9.0,NNW,18.4,31.1,N/A,,Overcast,330,2012-12-26 17:15:00
11:35 AM,32.0,23.0,69,30.04,10.0,NNW,16.1,27.6,N/A,,Overcast,340,2012-12-26 17:35:00
11:55 AM,32.0,23.0,69,30.03,10.0,NNW,18.4,27.6,N/A,,Overcast,340,2012-12-26 17:55:00
12:15 PM,32.0,23.0,69,30.03,10.0,North,13.8,23.0,N/A,,Overcast,350,2012-12-26 18:15:00
12:35 PM,33.8,24.8,70,30.03,10.0,NNW,11.5,-,N/A,,Overcast,330,2012-12-26 18:35:00
12:55 PM,33.8,24.8,70,30.04,10.0,NNW,13.8,-,N/A,,Overcast,330,2012-12-26 18:55:00
1:15 PM,33.8,24.8,70,30.04,10.0,NNW,12.7,-,N/A,,Overcast,330,2012-12-26 19:15:00
1:35 PM,35.6,24.8,65,30.04,10.0,NNW,15.0,18.4,N/A,,Overcast,340,2012-12-26 19:35:00
1:55 PM,35.6,24.8,65,30.05,10.0,NW,11.5,-,N/A,,Overcast,320,2012-12-26 19:55:00
2:15 PM,35.6,24.8,65,30.06,10.0,NW,12.7,-,N/A,,Overcast,320,2012-12-26 20:15:00
2:35 PM,35.6,24.8,65,30.06,10.0,NNW,15.0,21.9,N/A,,Overcast,330,2012-12-26 20:35:00
3:15 PM,35.6,24.8,65,30.07,10.0,NNW,10.4,-,N/A,,Partly Cloudy,330,2012-12-26 21:15:00
3:35 PM,35.6,23.0,60,30.08,10.0,NNW,15.0,-,N/A,,Clear,330,2012-12-26 21:35:00
3:55 PM,35.6,23.0,60,30.09,10.0,NNW,10.4,-,N/A,,Clear,330,2012-12-26 21:55:00
4:15 PM,33.8,23.0,65,30.10,10.0,NNW,5.8,-,N/A,,Clear,330,2012-12-26 22:15:00
4:55 PM,32.0,23.0,69,30.10,10.0,NNW,4.6,-,N/A,,Clear,340,2012-12-26 22:55:00
5:15 PM,30.2,23.0,75,30.10,10.0,North,5.8,-,N/A,,Clear,350,2012-12-26 23:15:00
5:35 PM,28.4,23.0,80,30.11,10.0,Calm,Calm,-,N/A,,Clear,0,2012-12-26 23:35:00
5:55 PM,26.6,23.0,86,30.12,10.0,Calm,Calm,-,N/A,,Clear,0,2012-12-26 23:55:00
6:15 PM,26.6,23.0,86,30.13,10.0,Calm,Calm,-,N/A,,Clear,0,2012-12-27 00:15:00
6:35 PM,26.6,23.0,86,30.14,10.0,Calm,Calm,-,N/A,,Clear,0,2012-12-27 00:35:00
6:55 PM,23.0,21.2,93,30.15,10.0,WNW,3.5,-,N/A,,Clear,290,2012-12-27 00:55:00
7:15 PM,24.8,23.0,93,30.16,10.0,WNW,3.5,-,N/A,,Clear,290,2012-12-27 01:15:00
7:35 PM,24.8,23.0,93,30.17,10.0,WNW,4.6,-,N/A,,Clear,290,2012-12-27 01:35:00
7:55 PM,23.0,19.4,86,30.17,10.0,NW,5.8,-,N/A,,Partly Cloudy,320,2012-12-27 01:55:00
8:15 PM,26.6,23.0,86,30.17,10.0,NNW,6.9,-,N/A,,Partly Cloudy,340,2012-12-27 02:15:00
8:35 PM,24.8,19.4,80,30.17,10.0,NNW,4.6,-,N/A,,Clear,330,2012-12-27 02:35:00
8:55 PM,23.0,19.4,86,30.18,10.0,NW,5.8,-,N/A,,Partly Cloudy,320,2012-12-27 02:55:00
9:15 PM,23.0,17.6,80,30.19,10.0,NW,4.6,-,N/A,,Mostly Cloudy,310,2012-12-27 03:15:00
9:35 PM,24.8,21.2,86,30.19,10.0,WNW,5.8,-,N/A,,Overcast,300,2012-12-27 03:35:00
9:55 PM,26.6,21.2,80,30.20,10.0,NW,8.1,-,N/A,,Overcast,310,2012-12-27 03:55:00
10:15 PM,28.4,21.2,74,30.21,10.0,WNW,5.8,-,N/A,,Overcast,300,2012-12-27 04:15:00
10:55 PM,28.4,23.0,80,30.20,10.0,NW,6.9,-,N/A,,Overcast,320,2012-12-27 04:55:00
11:15 PM,28.4,23.0,80,30.20,10.0,NNW,4.6,-,N/A,,Overcast,340,2012-12-27 05:15:00
11:35 PM,28.4,23.0,80,30.19,10.0,North,3.5,-,N/A,,Overcast,360,2012-12-27 05:35:00
11:55 PM,28.4,23.0,80,30.18,10.0,NNE,4.6,-,N/A,,Overcast,20,2012-12-27 05:55:00